• In Lithuania
  • List of Countries
  • For 7 days
  • Water Temperature
  • Satellite Maps
  • Weather Map
  • Weather Widgets
  • user-avatar
    Login

    Hourly Weather Verhnestepnoy

    Today, 18 August, Saturday

    Time Temperature Precipitation Wind Pressure Humidity
    00:00 +25°C° 0.2 mm 1 mps 742 mmHg 52%
    01:00 +24°C° 0 mm 1 mps 742 mmHg 55%
    02:00 +23°C° 0 mm 1 mps 741 mmHg 58%
    03:00 +21°C° 0 mm 0 mps 741 mmHg 61%
    04:00 +21°C° 0 mm 0 mps 741 mmHg 60%
    05:00 +23°C° 0 mm 1 mps 741 mmHg 60%
    06:00 +23°C° 0 mm 1 mps 741 mmHg 60%
    07:00 +25°C° 0 mm 1 mps 742 mmHg 53%
    08:00 +27°C° 0 mm 1 mps 742 mmHg 46%
    09:00 +29°C° 0 mm 1 mps 742 mmHg 39%
    10:00 +31°C° 0 mm 2 mps 742 mmHg 34%
    11:00 +32°C° 0 mm 2 mps 742 mmHg 30%
    12:00 +34°C° 0 mm 3 mps 742 mmHg 25%
    13:00 +35°C° 0 mm 3 mps 741 mmHg 23%
    14:00 +35°C° 0 mm 3 mps 741 mmHg 22%
    15:00 +35°C° 0 mm 3 mps 741 mmHg 20%
    16:00 +35°C° 0 mm 3 mps 741 mmHg 22%
    17:00 +34°C° 0 mm 2 mps 741 mmHg 25%
    18:00 +32°C° 0 mm 2 mps 741 mmHg 27%
    19:00 +30°C° 0 mm 2 mps 742 mmHg 29%
    20:00 +29°C° 0 mm 2 mps 742 mmHg 31%
    21:00 +27°C° 0 mm 3 mps 742 mmHg 33%
    22:00 +27°C° 0 mm 3 mps 742 mmHg 37%
    23:00 +26°C° 0 mm 3 mps 742 mmHg 40%

    Tomorrow, 19 August, Sunday

    Time Temperature Precipitation Wind Pressure Humidity
    00:00 +25°C° 0 mm 3 mps 742 mmHg 44%
    01:00 +25°C° 0 mm 3 mps 742 mmHg 47%
    02:00 +23°C° 0 mm 4 mps 743 mmHg 49%
    03:00 +22°C° 0 mm 4 mps 743 mmHg 52%
    04:00 +22°C° 0 mm 3 mps 743 mmHg 52%
    05:00 +21°C° 0 mm 3 mps 743 mmHg 53%
    06:00 +21°C° 0 mm 3 mps 743 mmHg 54%
    07:00 +22°C° 0 mm 3 mps 744 mmHg 50%
    08:00 +23°C° 0 mm 4 mps 744 mmHg 45%
    09:00 +25°C° 0 mm 4 mps 744 mmHg 41%
    10:00 +25°C° 0 mm 4 mps 744 mmHg 40%
    11:00 +26°C° 0 mm 4 mps 744 mmHg 39%
    12:00 +26°C° 0 mm 4 mps 744 mmHg 38%
    13:00 +27°C° 0 mm 4 mps 744 mmHg 36%
    14:00 +28°C° 0 mm 4 mps 744 mmHg 34%
    15:00 +29°C° 0 mm 4 mps 744 mmHg 32%
    16:00 +28°C° 0 mm 4 mps 744 mmHg 33%
    17:00 +27°C° 0 mm 4 mps 744 mmHg 33%
    18:00 +27°C° 0 mm 3 mps 744 mmHg 34%
    19:00 +25°C° 0 mm 3 mps 745 mmHg 33%
    20:00 +24°C° 0 mm 3 mps 745 mmHg 33%
    21:00 +21°C° 0 mm 3 mps 746 mmHg 32%
    22:00 +21°C° 0 mm 3 mps 746 mmHg 33%
    23:00 +20°C° 0 mm 3 mps 746 mmHg 34%

    Day after tomorrow, 20 August, Monday

    Time Temperature Precipitation Wind Pressure Humidity
    00:00 +19°C° 0 mm 3 mps 746 mmHg 35%
    01:00 +19°C° 0 mm 3 mps 746 mmHg 37%
    02:00 +18°C° 0 mm 3 mps 745 mmHg 39%
    03:00 +18°C° 0 mm 3 mps 745 mmHg 40%
    04:00 +17°C° 0 mm 3 mps 745 mmHg 43%
    05:00 +17°C° 0 mm 3 mps 746 mmHg 45%
    06:00 +17°C° 0 mm 3 mps 746 mmHg 48%
    07:00 +19°C° 0 mm 3 mps 746 mmHg 44%
    08:00 +21°C° 0 mm 4 mps 746 mmHg 40%
    09:00 +23°C° 0 mm 5 mps 746 mmHg 36%
    10:00 +25°C° 0 mm 5 mps 746 mmHg 33%
    11:00 +27°C° 0 mm 5 mps 746 mmHg 31%
    12:00 +28°C° 0 mm 6 mps 746 mmHg 28%
    13:00 +28°C° 0 mm 6 mps 745 mmHg 28%
    14:00 +29°C° 0 mm 6 mps 745 mmHg 27%
    15:00 +29°C° 0 mm 6 mps 745 mmHg 27%
    16:00 +28°C° 0 mm 6 mps 745 mmHg 29%
    17:00 +27°C° 0 mm 6 mps 745 mmHg 32%
    18:00 +26°C° 0 mm 6 mps 745 mmHg 35%
    19:00 +24°C° 0 mm 6 mps 746 mmHg 39%
    20:00 +22°C° 0 mm 6 mps 746 mmHg 43%
    21:00 +21°C° 0 mm 5 mps 746 mmHg 46%
    22:00 +20°C° 0 mm 5 mps 746 mmHg 53%
    23:00 +20°C° 0 mm 5 mps 746 mmHg 59%

    21 August, Tuesday

    Time Temperature Precipitation Wind Pressure Humidity
    00:00 +19°C° 0 mm 4 mps 745 mmHg 66%
    01:00 +19°C° 0 mm 4 mps 745 mmHg 68%
    02:00 +18°C° 0 mm 4 mps 745 mmHg 71%
    03:00 +18°C° 0 mm 3 mps 745 mmHg 74%
    04:00 +18°C° 0 mm 3 mps 745 mmHg 74%
    05:00 +18°C° 0 mm 3 mps 745 mmHg 75%
    06:00 +17°C° 0 mm 3 mps 745 mmHg 75%
    07:00 +19°C° 0 mm 4 mps 746 mmHg 68%
    08:00 +21°C° 0 mm 4 mps 746 mmHg 62%
    09:00 +23°C° 0 mm 5 mps 746 mmHg 55%
    10:00 +26°C° 0 mm 5 mps 745 mmHg 51%
    11:00 +27°C° 0 mm 5 mps 745 mmHg 47%
    12:00 +29°C° 0 mm 5 mps 745 mmHg 42%
    13:00 +29°C° 0 mm 5 mps 745 mmHg 41%
    14:00 +30°C° 0 mm 6 mps 745 mmHg 40%
    15:00 +32°C° 0 mm 6 mps 745 mmHg 38%
    16:00 +30°C° 0 mm 5 mps 745 mmHg 41%
    17:00 +29°C° 0 mm 5 mps 745 mmHg 44%
    18:00 +28°C° 0 mm 5 mps 745 mmHg 47%
    19:00 +27°C° 0.1 mm 5 mps 745 mmHg 50%
    20:00 +26°C° 0.1 mm 5 mps 745 mmHg 52%
    21:00 +25°C° 0.1 mm 5 mps 746 mmHg 55%
    22:00 +23°C° 0.1 mm 4 mps 746 mmHg 58%
    23:00 +22°C° 0.1 mm 4 mps 745 mmHg 62%

    22 August, Wednesday

    Time Temperature Precipitation Wind Pressure Humidity
    00:00 +21°C° 0.1 mm 3 mps 745 mmHg 65%
    01:00 +21°C° 0.1 mm 3 mps 745 mmHg 67%
    02:00 +20°C° 0.1 mm 3 mps 745 mmHg 69%
    03:00 +20°C° 0.1 mm 2 mps 745 mmHg 71%
    04:00 +20°C° 0 mm 2 mps 746 mmHg 72%
    05:00 +20°C° 0 mm 2 mps 746 mmHg 73%
    06:00 +19°C° 0 mm 2 mps 746 mmHg 73%
    07:00 +21°C° 0 mm 2 mps 746 mmHg 67%
    08:00 +24°C° 0 mm 3 mps 746 mmHg 61%
    09:00 +26°C° 0 mm 3 mps 746 mmHg 55%
    10:00 +27°C° 0 mm 3 mps 746 mmHg 51%
    11:00 +28°C° 0 mm 3 mps 745 mmHg 47%
    12:00 +30°C° 0 mm 3 mps 745 mmHg 43%
    13:00 +30°C° 0 mm 3 mps 745 mmHg 41%
    14:00 +31°C° 0 mm 3 mps 745 mmHg 39%
    15:00 +33°C° 0 mm 3 mps 745 mmHg 37%
    16:00 +31°C° 0 mm 3 mps 745 mmHg 39%
    17:00 +31°C° 0 mm 2 mps 745 mmHg 40%
    18:00 +31°C° 0 mm 2 mps 745 mmHg 42%
    19:00 +29°C° 0 mm 2 mps 745 mmHg 44%
    20:00 +28°C° 0 mm 2 mps 746 mmHg 46%
    21:00 +26°C° 0 mm 3 mps 746 mmHg 49%
    22:00 +25°C° 0 mm 3 mps 746 mmHg 53%
    23:00 +25°C° 0 mm 3 mps 745 mmHg 57%

    23 August, Thursday

    Time Temperature Precipitation Wind Pressure Humidity
    00:00 +24°C° 0 mm 3 mps 745 mmHg 60%
    01:00 +23°C° 0 mm 2 mps 745 mmHg 64%
    02:00 +23°C° 0 mm 2 mps 745 mmHg 67%
    03:00 +21°C° 0 mm 2 mps 745 mmHg 70%
    04:00 +21°C° 0 mm 2 mps 745 mmHg 71%
    05:00 +21°C° 0 mm 2 mps 745 mmHg 73%
    06:00 +21°C° 0 mm 2 mps 745 mmHg 75%
    07:00 +24°C° 0 mm 2 mps 745 mmHg 67%
    08:00 +26°C° 0 mm 3 mps 745 mmHg 59%
    09:00 +28°C° 0 mm 3 mps 745 mmHg 51%
    10:00 +29°C° 0 mm 4 mps 744 mmHg 46%
    11:00 +32°C° 0 mm 4 mps 744 mmHg 40%
    12:00 +34°C° 0 mm 5 mps 743 mmHg 35%
    13:00 +34°C° 0 mm 5 mps 743 mmHg 32%
    14:00 +35°C° 0 mm 5 mps 743 mmHg 30%
    15:00 +36°C° 0 mm 5 mps 743 mmHg 28%
    16:00 +35°C° 0 mm 5 mps 743 mmHg 30%
    17:00 +34°C° 0 mm 5 mps 743 mmHg 32%
    18:00 +33°C° 0 mm 4 mps 742 mmHg 34%
    19:00 +30°C° 0 mm 4 mps 743 mmHg 37%
    20:00 +28°C° 0 mm 4 mps 743 mmHg 40%
    21:00 +27°C° 0 mm 4 mps 743 mmHg 43%
    22:00 +26°C° 0 mm 3 mps 743 mmHg 44%
    23:00 +25°C° 0 mm 3 mps 742 mmHg 45%
    Show more